Hourly Weather Roundup
Issued by NWS Central Illinois

Home | Current Version | Previous Version | Graphics & Text | Print | Product List | Glossary On
Versions: 1 2 3 4 5 6 7 8 9 10 11 12 13 14 15 16 17 18 19 20 21 22 23 24 25 26 27 28 29 30 31 32 33 34 35 36 37 38 39 40 41 42 43 44 45 46 47 48 49 50
000
NZUS43 KILX 092110
HWRILX

Area Weather Roundup
National Weather Service Lincoln IL
300 PM CST SAT DEC 09 2017

NOTE:  "FAIR" indicates few or no clouds below 12,000 feet, with
       no sigificant weather and/or obstructions to visibility.


CITY           SKY/WX    TMP DP  RH WIND       PRES   REMARKS
Bloomington    PTSUNNY   30  15  53 NW21G28   29.99R WCI  17
Champaign      CLOUDY    32  16  51 NW25G32   29.96R WCI  19
Danville       CLOUDY    30  18  60 NW20G25   29.90R WCI  18
Decatur        CLOUDY    31  14  49 NW20G30   30.00R WCI  19
Effingham      CLOUDY    33  19  56 W17G23    30.01R WCI  22
Flora          CLOUDY    35  18  50 NW16G24   30.01R WCI  25
Galesburg      PTSUNNY   31  16  53 W16       30.05R WCI  20
Jacksonville   CLOUDY    32  13  45 NW15      30.06R WCI  22
Lacon          PTSUNNY   29  14  53 NW16G22   30.01R WCI  17
Lawrenceville  CLOUDY    34  20  56 NW21G29   29.98R WCI  22
Litchfield     PTSUNNY   32  15  49 NW20G28   30.04R WCI  20
$$


CITY           SKY/WX    TMP DP  RH WIND       PRES   REMARKS
Lincoln        CLOUDY    32  17  53 NW15G25   30.02R WCI  21
Macomb         PTSUNNY   32  14  46 NW17G25   30.07R WCI  21
Mattoon        CLOUDY    31  17  56 NW21      29.97R WCI  18
Mt Carmel AP   CLOUDY    34  19  54 NW24G31   29.96R WCI  22
Olney-Noble AP CLOUDY    33  15  47 NW22G28   30.00R WCI  21
Paris AP       CLOUDY    31  19  60 NW18G25   29.96R WCI  19
Peoria         CLOUDY    30  14  51 NW16G23   30.03R WCI  19
Pontiac        MOSUNNY   31  15  52 NW20G28   29.98R WCI  19
Rantoul        PTSUNNY   32  18  57 NW21      29.95R WCI  20
Robinson       CLOUDY    32  19  59 NW18G24   29.98R WCI  20
Springfield    CLOUDY    34  14  43 NW17G24   30.03R WCI  23
Taylorville    CLOUDY    32  16  50 NW21G28   30.03R WCI  20
$$

...REGIONAL REPORTS...


CITY           SKY/WX    TMP DP  RH WIND       PRES   REMARKS
Chicago O`Hare PTSUNNY   29  16  58 NW20      29.92R WCI  16
Kankakee       CLOUDY    31  17  57 NW20G30   29.93R WCI  19
Moline         SUNNY     32  13  45 NW13G23   30.03R WCI  22
Mount Sterling PTSUNNY   30  15  53 NW16      30.07R WCI  19
Mount Vernon   CLOUDY    34  22  61 NW8       30.03R WCI  27
Pittsfield     CLOUDY    32  17  54 NW16G24   30.09R WCI  21
Quincy         PTSUNNY   30  14  51 NW17G23   30.09R WCI  18
Rockford       MOSUNNY   29  14  53 NW20      29.99R WCI  16
$$


CITY           SKY/WX    TMP DP  RH WIND       PRES   REMARKS
Burlington     SUNNY     32  13  45 NW13G24   30.06R WCI  22
Cedar Rapids   CLOUDY    29  13  51 NW17      30.06R WCI  17
Des Moines     MOSUNNY   29  12  49 NW15      30.14R WCI  18
Kirksville     SUNNY     30  17  58 NW15      30.13R WCI  19
Ottumwa        PTSUNNY   30  14  51 NW15      30.12R WCI  19
St Louis       PTSUNNY   34  19  54 NW16G26   30.07R WCI  24
$$


CITY           SKY/WX    TMP DP  RH WIND       PRES   REMARKS
Terre Haute    CLOUDY    31  16  54 NW13G24   29.94R WCI  21
Evansville     CLOUDY    36  19  50 NW14G29   29.98R WCI  27
Indianapolis   CLOUDY    30  19  63 NW17G28   29.87R WCI  18
Lafayette      CLOUDY    29  21  72 NW15G24   29.88R WCI  18
Madison        PTSUNNY   23  12  62 N7G22     29.98R WCI  15
Milwaukee      PTSUNNY   27  16  63 NW15G23   29.92R WCI  15
$$






USA.gov is the U.S. government's official web portal to all federal, state and local government web resources and services.